Location: Unspecified
(0.0000°N, 0.0000°E)
Time: 07:41:28
(UTC+00:00)

Kosmos-648 - Pass Details

Date: 06 July 2022
Orbit: 1437 x 1489 km, 74.0° (Epoch: 16 August)

Event Time Altitude Azimuth Distance (km) Brightness Sun altitude
Rises 19:11:14 0° 8° (N) 4,601 ? -15.3°
Reaches altitude 10° 19:14:33 10° 17° (NNE) 3,623 ? -16.0°
Maximum altitude 19:22:13 33° 78° (ENE) 2,289 ? -17.8°
Enters shadow 19:25:31 26° 114° (ESE) 2,596 ? -18.6°
